Home   Weather   Steinbach   Past weeks

Flag for Canada Past Weather in Steinbach, Manitoba, Canada — Yesterday and Last 2 Weeks

Now
37 °F

Chilly.


Feels Like: 30 °F
Forecast: 26 / 40 °F
Wind: 9 mph from Northeast

Location: Winnipeg The Forks Man

Current Time: Apr 26, 2017 at 12:34:58 pm

Latest Report: Apr 26, 2017 at 12:00 pm


Visibility: N/A

Pressure: 29.95 "Hg

Humidity: 50%

Dew Point: 20 °F

Location of SteinbachLocation

Past Weather in Steinbach — Graph

°F

Steinbach Temperature Yesterday

Maximum temperature yesterday: 44 °F (at 6:00 pm)
Minimum temperature yesterday: 30 °F (at 6:00 am)
Average temperature yesterday: 35 °F

High & Low Weather Summary for the Past Weeks

 TemperatureHumidityPressure
High70 °F (Apr 14, 6:00 pm)100% (Apr 22, 9:00 am)30.35 "Hg (Apr 22, 9:00 am)
Low24 °F (Apr 17, 7:00 am)20% (Apr 11, 1:00 pm)29.59 "Hg (Apr 14, 9:00 pm)
Average42 °F62%30.08 "Hg
* Reported Apr 11 11:00 am — Apr 26 11:00 am, Steinbach, Weather by CustomWeather, © 2017

Note: Actual official high and low records may vary slightly from our data, if they occured in-between our weather recording intervals... More about our weather records

Advertising

Steinbach Weather History for the Previous 24 Hours

Scroll right to see more
 ConditionsComfort  
Time TempWeatherWind HumidityBarometerVisibility
11:00 am
Wed, Apr 26
34 °FChilly.9 mph57%29.97 "HgN/A
10:00 am31 °FChilly.8 mph60%29.98 "HgN/A
9:00 am30 °FChilly.10 mph63%29.99 "HgN/A
8:00 am29 °FChilly.9 mph63%29.99 "HgN/A
7:00 am28 °FChilly.7 mph68%29.98 "HgN/A
6:00 am28 °FChilly.8 mph68%30.00 "HgN/A
5:00 am29 °FChilly.7 mph68%30.00 "HgN/A
4:00 am30 °FChilly.6 mph72%29.99 "HgN/A
3:00 am31 °FChilly.6 mph64%30.01 "HgN/A
2:00 am32 °FChilly.5 mph69%30.03 "HgN/A
1:00 am34 °FChilly.5 mph63%30.04 "HgN/A
12:00 am35 °FChilly.5 mph58%30.03 "HgN/A
11:00 pm
Tue, Apr 25
36 °FChilly.6 mph59%30.03 "HgN/A
10:00 pm38 °FChilly.6 mph53%30.03 "HgN/A
9:00 pm40 °FChilly.6 mph49%30.03 "HgN/A
8:00 pm41 °FQuite cool.6 mph46%30.01 "HgN/A
7:00 pm43 °FQuite cool.8 mph43%29.98 "HgN/A
6:00 pm44 °FQuite cool.10 mph43%29.97 "HgN/A
5:00 pm43 °FQuite cool.9 mph48%29.96 "HgN/A
4:00 pm42 °FQuite cool.9 mph52%29.96 "HgN/A
3:00 pm40 °FChilly.10 mph55%29.96 "HgN/A
2:00 pm38 °FChilly.8 mph59%29.98 "HgN/A
1:00 pm36 °FChilly.9 mph64%29.98 "HgN/A
12:00 pm34 °FChilly.10 mph65%29.97 "HgN/A
Weather by CustomWeather, © 2017

See weather overviewHow to use our weather pages